Time,TemperatureF,DewpointF,PressureIn,WindDirection,WindDirectionDegrees,WindSpeedMPH,WindSpeedGustMPH,Humidity,HourlyPrecipIn,Conditions,Clouds,dailyrainin,SoftwareType,DateUTC
2013-03-24 00:02:00,34.5,27.0,29.94,East,88,2.0,7.0,73,0.00,,,0.00,weatherlink.com 1.10,2013-03-24 04:02:00,
2013-03-24 00:17:00,33.9,27.0,29.93,WSW,252,1.0,5.0,75,0.00,,,0.00,weatherlink.com 1.10,2013-03-24 04:17:00,
2013-03-24 00:32:00,33.4,27.0,29.93,WSW,250,1.0,4.0,76,0.00,,,0.00,weatherlink.com 1.10,2013-03-24 04:32:00,
2013-03-24 00:47:00,32.9,26.0,29.94,WSW,256,1.0,4.0,77,0.00,,,0.00,weatherlink.com 1.10,2013-03-24 04:47:00,
2013-03-24 01:02:00,32.4,27.0,29.93,ENE,58,2.0,2.0,79,0.00,,,0.00,weatherlink.com 1.10,2013-03-24 05:02:00,
2013-03-24 01:17:00,32.2,26.0,29.93,ENE,57,1.0,4.0,79,0.00,,,0.00,weatherlink.com 1.10,2013-03-24 05:17:00,
2013-03-24 01:32:00,32.0,27.0,29.92,ENE,64,2.0,4.0,80,0.00,,,0.00,weatherlink.com 1.10,2013-03-24 05:32:00,
2013-03-24 01:47:00,32.0,27.0,29.91,NE,41,4.0,7.0,81,0.00,,,0.00,weatherlink.com 1.10,2013-03-24 05:47:00,
2013-03-24 02:02:00,32.0,27.0,29.91,ENE,75,2.0,4.0,81,0.00,,,0.00,weatherlink.com 1.10,2013-03-24 06:02:00,
2013-03-24 02:18:00,32.0,27.0,29.92,WNW,285,1.0,4.0,81,0.00,,,0.00,weatherlink.com 1.10,2013-03-24 06:18:00,
2013-03-24 02:33:00,32.0,27.0,29.91,ENE,65,2.0,7.0,81,0.00,,,0.00,weatherlink.com 1.10,2013-03-24 06:33:00,
2013-03-24 02:48:00,32.0,27.0,29.93,East,94,0.0,9.0,81,0.00,,,0.00,weatherlink.com 1.10,2013-03-24 06:48:00,
2013-03-24 03:03:00,31.9,26.0,29.92,NNE,18,2.0,9.0,80,0.00,,,0.00,weatherlink.com 1.10,2013-03-24 07:03:00,
2013-03-24 03:18:00,31.8,26.0,29.91,East,83,5.0,8.0,79,0.00,,,0.00,weatherlink.com 1.10,2013-03-24 07:18:00,
2013-03-24 03:33:00,31.7,26.0,29.91,ENE,72,2.0,7.0,79,0.00,,,0.00,weatherlink.com 1.10,2013-03-24 07:33:00,
2013-03-24 03:48:00,31.7,26.0,29.91,SE,124,3.0,12.0,78,0.00,,,0.00,weatherlink.com 1.10,2013-03-24 07:48:00,
2013-03-24 04:03:00,31.8,25.0,29.90,East,84,4.0,7.0,77,0.00,,,0.00,weatherlink.com 1.10,2013-03-24 08:03:00,
2013-03-24 04:18:00,31.8,25.0,29.90,NE,56,3.0,5.0,77,0.00,,,0.00,weatherlink.com 1.10,2013-03-24 08:18:00,
2013-03-24 04:33:00,31.8,25.0,29.89,SSW,204,2.0,7.0,77,0.00,,,0.00,weatherlink.com 1.10,2013-03-24 08:33:00,
2013-03-24 04:48:00,31.6,25.0,29.89,NNW,345,2.0,4.0,78,0.00,,,0.00,weatherlink.com 1.10,2013-03-24 08:48:00,
2013-03-24 05:03:00,31.6,25.0,29.88,SE,134,3.0,10.0,78,0.00,,,0.00,weatherlink.com 1.10,2013-03-24 09:03:00,
2013-03-24 05:18:00,31.5,25.0,29.87,SE,134,3.0,7.0,78,0.00,,,0.00,weatherlink.com 1.10,2013-03-24 09:18:00,
2013-03-24 05:33:00,31.6,26.0,29.86,North,353,2.0,8.0,79,0.00,,,0.00,weatherlink.com 1.10,2013-03-24 09:33:00,
2013-03-24 05:48:00,31.5,26.0,29.86,East,92,2.0,6.0,79,0.00,,,0.00,weatherlink.com 1.10,2013-03-24 09:48:00,
2013-03-24 06:03:00,31.4,26.0,29.85,NNE,15,1.0,7.0,80,0.00,,,0.00,weatherlink.com 1.10,2013-03-24 10:03:00,
2013-03-24 06:18:00,31.4,26.0,29.84,WNW,285,4.0,6.0,80,0.00,,,0.00,weatherlink.com 1.10,2013-03-24 10:18:00,
2013-03-24 06:33:00,31.4,26.0,29.85,NNE,25,1.0,9.0,80,0.00,,,0.00,weatherlink.com 1.10,2013-03-24 10:33:00,
2013-03-24 06:48:00,31.4,26.0,29.84,North,359,3.0,6.0,80,0.00,,,0.00,weatherlink.com 1.10,2013-03-24 10:48:00,
2013-03-24 07:03:00,31.3,26.0,29.83,East,97,1.0,7.0,80,0.00,,,0.00,weatherlink.com 1.10,2013-03-24 11:03:00,
2013-03-24 07:18:00,31.2,26.0,29.83,West,267,2.0,9.0,80,0.00,,,0.00,weatherlink.com 1.10,2013-03-24 11:18:00,
2013-03-24 07:33:00,31.2,26.0,29.82,East,86,10.0,10.0,80,0.00,,,0.00,weatherlink.com 1.10,2013-03-24 11:33:00,
2013-03-24 07:48:00,31.2,26.0,29.82,SSE,162,3.0,7.0,80,0.00,,,0.00,weatherlink.com 1.10,2013-03-24 11:48:00,
2013-03-24 08:03:00,31.3,26.0,29.82,ENE,76,1.0,4.0,80,0.00,,,0.00,weatherlink.com 1.10,2013-03-24 12:03:00,
2013-03-24 08:18:00,31.2,26.0,29.81,NNW,340,3.0,6.0,82,0.00,,,0.00,weatherlink.com 1.10,2013-03-24 12:18:00,
2013-03-24 08:33:00,30.3,27.0,29.81,NNW,348,1.0,7.0,87,0.00,,,0.00,weatherlink.com 1.10,2013-03-24 12:33:00,
2013-03-24 08:48:00,29.7,27.0,29.81,South,176,0.0,9.0,90,0.00,,,0.00,weatherlink.com 1.10,2013-03-24 12:48:00,
2013-03-24 09:03:00,29.5,28.0,29.80,NE,56,2.0,5.0,92,0.00,,,0.00,weatherlink.com 1.10,2013-03-24 13:03:00,
2013-03-24 09:19:00,29.3,28.0,29.79,SW,219,2.0,7.0,93,0.00,,,0.00,weatherlink.com 1.10,2013-03-24 13:19:00,
2013-03-24 09:34:00,29.4,28.0,29.78,WSW,248,4.0,8.0,93,0.00,,,0.00,weatherlink.com 1.10,2013-03-24 13:34:00,
2013-03-24 09:49:00,29.9,28.0,29.77,NE,41,5.0,9.0,93,0.00,,,0.00,weatherlink.com 1.10,2013-03-24 13:49:00,
2013-03-24 10:04:00,30.1,28.0,29.76,WNW,290,2.0,7.0,92,0.00,,,0.00,weatherlink.com 1.10,2013-03-24 14:04:00,
2013-03-24 10:19:00,30.6,29.0,29.75,NE,46,3.0,6.0,92,0.00,,,0.00,weatherlink.com 1.10,2013-03-24 14:19:00,
2013-03-24 10:34:00,30.9,29.0,29.75,South,181,2.0,12.0,92,0.00,,,0.00,weatherlink.com 1.10,2013-03-24 14:34:00,
2013-03-24 10:49:00,31.4,29.0,29.75,ESE,113,3.0,8.0,91,0.00,,,0.00,weatherlink.com 1.10,2013-03-24 14:49:00,
2013-03-24 11:04:00,31.7,29.0,29.73,WSW,245,2.0,12.0,89,0.00,,,0.00,weatherlink.com 1.10,2013-03-24 15:04:00,
2013-03-24 11:19:00,32.2,29.0,29.73,WSW,247,1.0,7.0,88,0.00,,,0.00,weatherlink.com 1.10,2013-03-24 15:19:00,
2013-03-24 11:34:00,32.2,29.0,29.71,East,100,4.0,8.0,87,0.00,,,0.00,weatherlink.com 1.10,2013-03-24 15:34:00,
2013-03-24 11:49:00,32.5,29.0,29.70,NE,55,4.0,8.0,86,0.00,,,0.00,weatherlink.com 1.10,2013-03-24 15:49:00,
2013-03-24 12:04:00,32.7,29.0,29.70,NE,49,7.0,9.0,86,0.00,,,0.00,weatherlink.com 1.10,2013-03-24 16:04:00,
2013-03-24 12:19:00,32.7,29.0,29.70,East,83,3.0,9.0,86,0.00,,,0.00,weatherlink.com 1.10,2013-03-24 16:19:00,
2013-03-24 12:34:00,32.8,29.0,29.70,NE,54,5.0,12.0,87,0.01,,,0.01,weatherlink.com 1.10,2013-03-24 16:34:00,
2013-03-24 12:49:00,32.9,30.0,29.69,ESE,111,3.0,6.0,88,0.01,,,0.01,weatherlink.com 1.10,2013-03-24 16:49:00,
2013-03-24 13:04:00,32.9,30.0,29.68,WSW,248,2.0,8.0,89,0.01,,,0.01,weatherlink.com 1.10,2013-03-24 17:04:00,
2013-03-24 13:19:00,32.8,30.0,29.67,SE,132,3.0,12.0,89,0.00,,,0.01,weatherlink.com 1.10,2013-03-24 17:19:00,
2013-03-24 13:34:00,32.8,30.0,29.67,East,91,4.0,10.0,90,0.01,,,0.02,weatherlink.com 1.10,2013-03-24 17:34:00,
2013-03-24 13:49:00,32.7,30.0,29.66,North,356,3.0,7.0,91,0.01,,,0.02,weatherlink.com 1.10,2013-03-24 17:49:00,
2013-03-24 14:04:00,32.9,30.0,29.64,NE,37,6.0,8.0,90,0.01,,,0.02,weatherlink.com 1.10,2013-03-24 18:04:00,
2013-03-24 14:19:00,33.3,31.0,29.62,NE,37,5.0,8.0,90,0.01,,,0.02,weatherlink.com 1.10,2013-03-24 18:19:00,
2013-03-24 14:34:00,33.4,31.0,29.60,North,6,9.0,14.0,89,0.00,,,0.02,weatherlink.com 1.10,2013-03-24 18:34:00,
2013-03-24 14:49:00,33.5,30.0,29.58,East,101,6.0,13.0,88,0.00,,,0.02,weatherlink.com 1.10,2013-03-24 18:49:00,
2013-03-24 15:04:00,32.9,30.0,29.56,South,191,2.0,14.0,88,0.01,,,0.03,weatherlink.com 1.10,2013-03-24 19:04:00,
2013-03-24 15:19:00,32.7,30.0,29.55,NNE,18,11.0,14.0,88,0.01,,,0.03,weatherlink.com 1.10,2013-03-24 19:19:00,
2013-03-24 15:35:00,33.2,30.0,29.53,NE,47,9.0,14.0,88,0.02,,,0.04,weatherlink.com 1.10,2013-03-24 19:35:00,
2013-03-24 15:50:00,33.0,30.0,29.54,ESE,121,8.0,14.0,87,0.03,,,0.05,weatherlink.com 1.10,2013-03-24 19:50:00,
2013-03-24 16:05:00,33.3,30.0,29.53,East,83,4.0,11.0,88,0.02,,,0.05,weatherlink.com 1.10,2013-03-24 20:05:00,
2013-03-24 16:20:00,33.5,30.0,29.52,East,88,6.0,15.0,86,0.02,,,0.05,weatherlink.com 1.10,2013-03-24 20:20:00,
2013-03-24 16:35:00,33.7,29.0,29.50,North,11,8.0,16.0,83,0.01,,,0.05,weatherlink.com 1.10,2013-03-24 20:35:00,
2013-03-24 16:50:00,34.0,28.0,29.51,ENE,60,2.0,18.0,79,0.00,,,0.05,weatherlink.com 1.10,2013-03-24 20:50:00,
2013-03-24 17:05:00,34.3,28.0,29.50,East,81,5.0,15.0,77,0.00,,,0.05,weatherlink.com 1.10,2013-03-24 21:05:00,
2013-03-24 17:20:00,34.3,27.0,29.50,NNE,28,6.0,16.0,75,0.00,,,0.05,weatherlink.com 1.10,2013-03-24 21:20:00,
2013-03-24 17:35:00,34.3,27.0,29.49,SSE,155,4.0,13.0,74,0.00,,,0.05,weatherlink.com 1.10,2013-03-24 21:35:00,
2013-03-24 17:50:00,34.2,27.0,29.48,North,8,6.0,16.0,75,0.00,,,0.05,weatherlink.com 1.10,2013-03-24 21:50:00,
2013-03-24 18:05:00,33.7,27.0,29.47,ESE,115,9.0,19.0,77,0.00,,,0.05,weatherlink.com 1.10,2013-03-24 22:05:00,
2013-03-24 18:20:00,33.1,27.0,29.48,SE,146,5.0,20.0,79,0.00,,,0.05,weatherlink.com 1.10,2013-03-24 22:20:00,
2013-03-24 18:35:00,32.6,27.0,29.47,East,91,4.0,16.0,81,0.00,,,0.05,weatherlink.com 1.10,2013-03-24 22:35:00,
2013-03-24 18:50:00,32.2,27.0,29.48,South,187,3.0,12.0,82,0.00,,,0.05,weatherlink.com 1.10,2013-03-24 22:50:00,
2013-03-24 19:05:00,31.4,28.0,29.48,ESE,108,1.0,11.0,86,0.00,,,0.05,weatherlink.com 1.10,2013-03-24 23:05:00,
2013-03-24 19:20:00,30.7,28.0,29.49,SSW,208,5.0,12.0,89,0.00,,,0.05,weatherlink.com 1.10,2013-03-24 23:20:00,
2013-03-24 19:35:00,30.1,28.0,29.49,SE,127,3.0,9.0,91,0.00,,,0.05,weatherlink.com 1.10,2013-03-24 23:35:00,
2013-03-24 19:50:00,29.8,28.0,29.49,East,97,3.0,10.0,92,0.00,,,0.05,weatherlink.com 1.10,2013-03-24 23:50:00,
2013-03-24 20:05:00,29.6,28.0,29.48,NNW,339,2.0,11.0,93,0.00,,,0.05,weatherlink.com 1.10,2013-03-25 00:05:00,
2013-03-24 20:20:00,29.3,28.0,29.50,NNW,337,3.0,9.0,93,0.00,,,0.05,weatherlink.com 1.10,2013-03-25 00:20:00,
2013-03-24 20:35:00,29.2,28.0,29.50,West,264,3.0,7.0,94,0.00,,,0.05,weatherlink.com 1.10,2013-03-25 00:35:00,
2013-03-24 20:50:00,29.1,28.0,29.50,NNE,26,2.0,12.0,94,0.00,,,0.05,weatherlink.com 1.10,2013-03-25 00:50:00,
2013-03-24 21:05:00,29.0,28.0,29.50,NNW,348,5.0,8.0,94,0.00,,,0.05,weatherlink.com 1.10,2013-03-25 01:05:00,
2013-03-24 21:20:00,28.8,27.0,29.48,SSW,205,6.0,12.0,94,0.00,,,0.05,weatherlink.com 1.10,2013-03-25 01:20:00,
2013-03-24 21:35:00,28.7,28.0,29.50,SSE,153,2.0,10.0,95,0.00,,,0.05,weatherlink.com 1.10,2013-03-25 01:35:00,
2013-03-24 21:50:00,28.6,27.0,29.51,NE,43,4.0,12.0,95,0.00,,,0.05,weatherlink.com 1.10,2013-03-25 01:50:00,
2013-03-24 22:05:00,28.4,27.0,29.51,SW,222,2.0,12.0,94,0.00,,,0.05,weatherlink.com 1.10,2013-03-25 02:05:00,
2013-03-24 22:20:00,28.3,27.0,29.51,NNW,330,3.0,8.0,94,0.00,,,0.05,weatherlink.com 1.10,2013-03-25 02:20:00,
2013-03-24 22:35:00,28.3,27.0,29.51,East,79,1.0,7.0,95,0.00,,,0.05,weatherlink.com 1.10,2013-03-25 02:35:00,
2013-03-24 22:50:00,28.2,27.0,29.51,NNE,15,6.0,10.0,95,0.00,,,0.05,weatherlink.com 1.10,2013-03-25 02:50:00,
2013-03-24 23:05:00,28.2,27.0,29.52,ENE,60,2.0,9.0,95,0.00,,,0.05,weatherlink.com 1.10,2013-03-25 03:05:00,
2013-03-24 23:20:00,28.2,27.0,29.51,NNW,337,1.0,8.0,95,0.00,,,0.05,weatherlink.com 1.10,2013-03-25 03:20:00,
2013-03-24 23:35:00,28.2,27.0,29.51,North,356,2.0,8.0,95,0.00,,,0.05,weatherlink.com 1.10,2013-03-25 03:35:00,
2013-03-24 23:50:00,28.1,27.0,29.51,ENE,70,1.0,9.0,95,0.00,,,0.05,weatherlink.com 1.10,2013-03-25 03:50:00,